Location: Digswell
(51.8167°N, 0.1833°W)
Time: 15:35:26
(UTC+00:00)

Daily predictions for brighter satellites

Satellite Brightness Start Highest point End
(mag) Time Altitude Azimuth Time Altitude Azimuth Time Altitude Azimuth
NOSS 2-2 (C) 4.2 16:24:26 10° NW 16:29:11 68° NE 16:35:48 10° SE
Cosmos 1818 4.2 16:24:59 10° NW 16:30:06 38° NNE 16:35:11 10° E
Cosmos 2034 Rocket 4.1 16:25:12 10° SSE 16:31:11 56° E 16:37:13 10° NNE
SL-16 R/B 3.3 16:26:54 10° NNW 16:31:23 23° NE 16:35:50 10° E
FengYun 1-2 T 4.4 16:26:15 10° SE 16:31:37 51° ENE 16:36:58 10° N
Iridium 2 4.2 16:28:03 10° NNW 16:31:47 62° W 16:35:27 10° S
Cosmos 2237 Rocket 4.3 16:30:25 10° NNW 16:31:48 11° N 16:33:11 10° N
CZ-4B R/B 2.9 16:28:11 10° SSE 16:32:01 51° ENE 16:35:42 10° N
Cosmos 1408 Rocket 3.7 16:29:56 10° NNW 16:34:18 79° W 16:38:42 10° S
ADEOS 3.8 16:30:54 10° SSE 16:36:07 78° WSW 16:41:23 10° NNW
Cosmos 2082 Rocket 3.4 16:33:33 10° SSE 16:38:03 25° ESE 16:42:32 10° NE
USA 267 4.0 16:32:49 10° ENE 16:38:54 40° SE 16:44:58 10° SSW
YAOGAN 6 4.5 16:36:29 10° SSW 16:39:52 35° W 16:43:18 10° NNW
SMAP 3.3 16:38:09 10° SE 16:42:36 46° ENE 16:47:04 10° N
Cosmos 1743 Rocket 3.5 16:40:07 10° N 16:44:28 75° ENE 16:48:48 10° SSE
Cosmos 2333 Rocket 4.0 16:42:44 10° NNW 16:45:52 15° NNE 16:49:00 10° NE
Meteor 1-25 Rocket 4.2 16:40:26 10° N 16:46:01 71° ENE 16:51:37 10° SSE
Cosmos 2278 3.9 16:42:08 10° NNW 16:47:41 49° NE 16:53:11 10° SE
Cosmos 1763 Rocket 3.5 16:43:30 10° S 16:48:30 65° ESE 16:53:36 10° NNE
Cosmos 2026 Rocket 4.1 16:42:46 10° N 16:48:48 53° ENE 16:54:44 10° SSE
Cosmos 1602 3.8 16:45:39 10° N 16:49:27 54° ENE 16:53:15 10° SSE
ARGOS 4.2 16:45:17 10° ESE 16:49:31 24° ENE 16:53:46 10° N
Cosmos 1634 Rocket 4.5 16:44:17 10° SSE 16:50:06 40° E 16:55:56 10° NNE
SL-16 R/B 4.3 16:49:48 10° NW 16:52:08 12° NNW 16:54:29 10° N
Cosmos 44 Rocket 3.7 16:47:36 10° NW 16:52:22 43° NE 16:56:59 10° ESE
CZ-4B DEB 4.4 16:47:25 10° SE 16:52:41 49° ENE 16:57:56 10° N
SJ 16-02 4.4 16:49:52 10° NW 16:52:46 17° W 16:55:39 10° SW
Cosmos 2195 Rocket 4.5 16:46:47 10° N 16:52:55 66° ENE 16:59:05 10° SSE
SeaSat 1 3.4 16:50:27 10° NNE 16:55:09 44° NW 16:59:49 10° WSW
Cosmos 1833 Rocket 2.8 16:49:50 10° SSW 16:55:22 62° ESE 17:00:57 10° NE
Cosmos 1666 Rocket 4.3 16:51:38 10° N 16:55:38 32° ENE 16:59:35 10° SE
Cosmos 841 Rocket 4.1 16:52:17 10° S 16:56:58 37° ESE 17:01:41 10° NE
CZ-2C R/B 3.0 16:52:45 10° SSE 16:57:36 82° WSW 17:02:23 10° NNW
Okean O Rocket 2.8 16:56:00 10° ESE 16:59:26 22° ENE 17:02:52 10° N
USA 306 3.0 16:55:40 10° W 16:59:54 64° N 17:03:36 13° E
Cosmos 1937 Rocket 3.6 16:55:16 10° NNW 17:00:38 85° WSW 17:05:57 10° SSE
Cosmos 1809 Rocket 4.4 16:54:50 10° N 17:00:57 71° ENE 17:07:00 10° SSE
Cosmos 2219 Rocket 3.9 16:59:30 10° N 17:02:31 14° NNE 17:04:47 12° NE
H-2A R/B 2.4 16:58:07 10° SE 17:02:52 40° ENE 17:07:32 10° N
ISS -2.4 16:59:57 10° W 17:03:09 40° SSW 17:06:22 10° SE
Cosmos 1939 Rocket 2.8 16:59:54 10° SSE 17:03:59 73° ENE 17:08:02 10° N
COSMOS 2406 3.4 16:58:56 10° S 17:04:32 58° ESE 17:10:10 10° NE
ATLAS 2AS CENTAUR R/B 3.8 16:57:51 10° WNW 17:04:47 34° N 17:10:36 13° NE
Cosmos 372 Rocket 3.9 17:00:11 10° NNW 17:05:27 73° ENE 17:10:42 10° SSE
Cosmos 1606 4.1 17:02:08 10° SW 17:05:40 37° WNW 17:09:16 10° N
Cosmos 1125 Rocket 4.3 17:02:03 10° N 17:06:38 29° NE 17:11:12 10° ESE
CZ-2C R/B 3.7 17:02:59 10° NE 17:06:50 21° E 17:10:45 10° SE
Cosmos 1500 3.1 17:05:39 10° N 17:09:22 58° ENE 17:13:02 10° SSE
Cosmos 1500 Rocket 4.3 17:07:47 10° NNW 17:12:10 57° W 17:16:28 10° S
USA 234 3.4 17:08:05 10° ESE 17:14:39 80° SSW 17:21:13 10° WNW
Sich 1 2.9 17:12:39 10° N 17:16:59 81° E 17:21:18 10° SSE
Cosmos 1782 2.9 17:13:35 10° S 17:17:29 53° E 17:21:23 10° NNE
Cosmos 2221 3.8 17:13:43 10° SW 17:17:46 40° WNW 17:21:53 10° N
SL-08 R/B 3.7 17:13:48 10° N 17:18:30 66° WNW 17:23:05 10° SSW
CZ-2D R/B 3.3 17:15:41 10° SSE 17:19:23 51° ENE 17:23:06 10° N
USA 307 2.9 17:15:19 10° WNW 17:19:34 67° N 17:22:25 20° E
CZ-4B R/B 3.4 17:16:46 10° SE 17:21:53 46° ENE 17:26:58 10° N
ATLAS 5 CENTAUR R/B 2.7 17:14:18 10° WNW 17:24:05 58° NNE 17:26:27 20° E
Cosmos 1805 Rocket 3.8 17:19:58 10° NNW 17:24:19 70° W 17:28:37 10° S
NOAA 6 4.1 17:19:47 10° SSE 17:24:56 81° WSW 17:30:06 10° NNW
SL-24 R/B - RUBIN 2 4.4 17:22:46 10° NW 17:27:13 53° SW 17:31:26 10° SSE
PAYLOAD B 4.2 17:22:29 10° SSE 17:28:03 70° ENE 17:33:39 10° NNW
ERBS 3.3 17:26:53 10° WNW 17:29:49 31° N 17:30:53 25° NNE
deb Chang Zheng 4 3.8 17:27:49 10° SE 17:31:55 44° ENE 17:36:02 10° N
Cosmos 2360 Rocket 3.1 17:30:36 10° NNW 17:35:28 28° NE 17:37:21 23° ENE
Lacrosse 5 rocket 1.2 17:32:21 10° WNW 17:36:15 88° SSW 17:39:14 18° ESE
Cosmos 540 Rocket 3.4 17:31:27 10° SSW 17:36:33 89° WNW 17:41:13 13° NNE
H-2A R/B 4.4 17:40:45 14° NNE 17:40:45 14° NNE 17:41:31 10° N
Cosmos 1666 2.5 17:34:45 10° N 17:38:28 69° ENE 17:42:10 10° SSE
ATLAS CENTAUR R/B 3.5 17:35:29 10° WNW 17:38:41 19° NNW 17:41:01 14° NNE
USA 308 2.8 17:37:56 10° WNW 17:42:11 72° N 17:44:08 31° E
Meteor 2-16 Rocket 4.4 17:41:46 10° N 17:47:55 83° E 17:54:04 10° SSE
Meteor 1-11 Rocket 3.9 17:45:37 10° N 17:51:01 45° ENE 17:56:28 10° SE
COSMOS 2428 4.2 17:47:52 10° NNW 17:51:52 19° NNE 17:52:06 19° NNE
Meteor 1-26 Rocket 4.4 17:46:02 10° SSW 17:52:03 83° WNW 17:58:09 10° NNE
COSMOS 2455 2.8 17:46:37 10° SSW 17:52:40 84° SE 17:56:39 23° NE
PSLV R/B 4.3 17:51:12 10° S 17:54:50 58° WSW 17:58:35 10° NNW
CZ-4 R/B 3.4 17:59:19 15° N 17:59:19 15° N 18:00:09 10° N
Cosmos 2322 Rocket 2.4 17:51:35 10° NNW 17:57:09 50° NE 18:00:16 25° ESE
Cosmos 1814 Rocket 3.9 17:52:46 10° SSW 17:57:57 70° ESE 18:00:57 25° NNE
Cosmos 921 Rocket 3.7 17:54:33 10° SSE 17:57:55 34° ESE 17:57:55 34° ESE
Cosmos 1570 Rocket 4.0 17:53:54 10° S 17:59:04 63° ESE 18:01:47 28° NE
YAOGAN 3 4.5 17:54:47 10° SSE 17:59:06 68° ENE 18:03:27 10° N
Cosmos 2298 Rocket 3.9 17:55:14 10° NNW 18:00:35 73° ENE 18:05:54 10° SSE
SL-08 RB Rocket 3.8 17:56:44 10° SE 18:01:13 52° ENE 18:05:41 10° N
COSMO-SKYMED 1 2.7 17:59:54 37° NE 18:01:15 52° E 18:05:29 10° S
Cosmos 1980 Rocket 3.4 17:56:15 10° NW 18:01:38 45° WSW 18:06:56 10° S
CZ-4C R/B 3.4 17:55:24 10° NW 18:02:25 64° SW 18:10:39 10° SSE
Cosmos 1356 Rocket 3.6 18:00:25 10° N 18:04:08 46° NE 18:04:08 46° NE
Cosmos 1633 Rocket 3.3 18:01:34 10° NNW 18:05:56 72° W 18:10:18 10° S
Cosmos 1812 2.8 18:03:46 10° SSW 18:07:36 74° W 18:09:54 23° N
USA 305 2.8 18:03:24 10° WNW 18:07:40 87° NNE 18:08:38 53° ESE
Cosmos 2142 Rocket 4.5 18:05:59 10° S 18:12:09 85° W 18:18:28 10° N
Feng Yun 1-1 Rocket 4.3 18:06:42 10° SSE 18:12:32 64° ENE 18:18:18 10° NNW
YAOGAN 1 3.4 18:14:04 35° NNE 18:14:04 35° NNE 18:16:52 10° N
Cosmos 1818 3.9 18:08:35 10° NW 18:14:02 65° SW 18:19:25 10° SSE
CZ-4 R/B 4.3 18:10:12 10° SSE 18:14:20 88° ENE 18:18:31 10° NNW
Cosmos 1151 Rocket 3.2 18:10:20 10° SSW 18:14:40 74° WNW 18:17:49 19° N
Cosmos 2279 Rocket 4.0 18:09:12 10° S 18:15:25 85° W 18:21:40 10° N
SL-16 R/B 2.1 18:10:40 10° NNW 18:16:23 81° ENE 18:21:04 16° SE
Cosmos 2266 Rocket 3.9 18:10:13 10° N 18:16:39 75° E 18:23:03 10° SSE
Cosmos 2237 Rocket 4.1 18:15:25 10° N 18:17:59 15° NNE 18:17:59 15° NNE
Cosmos 2082 Rocket 2.4 18:15:58 10° SW 18:21:38 70° WNW 18:24:52 26° NNE
USA 267 3.2 18:19:25 36° ENE 18:22:22 88° NNW 18:28:56 10° WSW
Landsat 5 4.2 18:25:10 38° SSE 18:25:10 38° SSE 18:27:47 10° S
SKYMED 3 4.4 18:24:18 50° NNE 18:25:25 87° ESE 18:29:46 10° SSW
NOAA 15 4.5 18:20:35 10° SSE 18:25:49 67° ENE 18:31:04 10° N
ARGOS 3.4 18:23:56 10° S 18:29:20 71° WSW 18:34:45 10° NNW
Cosmos 1933 Rocket 3.7 18:26:54 10° N 18:30:31 60° N 18:30:31 60° N
GEOS 3 Rocket 3.5 18:30:35 55° ESE 18:31:44 75° NE 18:36:56 10° NW
Cosmos 2333 Rocket 3.0 18:26:36 10° NNW 18:31:06 35° NNE 18:31:06 35° NNE
Meteor 2-15 4.3 18:26:21 10° S 18:32:28 84° E 18:38:32 10° NNE
Cosmos 44 Rocket 4.3 18:29:18 10° NW 18:33:58 44° WSW 18:38:15 11° SSE
Okean O Rocket 2.2 18:31:03 10° S 18:35:26 57° WSW 18:39:52 10° NNW
Cosmos 2208 Rocket 4.0 18:30:23 10° SSW 18:35:49 85° WNW 18:37:42 43° NNE
Cosmos 2150 Rocket 4.3 18:31:53 10° NNW 18:37:01 66° WSW 18:42:12 10° SSE
Cosmos 1470 Rocket 4.1 18:32:41 10° NNW 18:37:05 59° W 18:41:29 10° S
Cosmos 1328 Rocket 4.0 18:34:12 10° SSW 18:38:36 60° WNW 18:40:29 32° N
SL-16 R/B 4.3 18:36:49 10° N 18:38:38 12° N 18:38:38 12° N
ISS -0.5 18:38:40 10° SW 18:39:16 10° SW 18:39:52 10° SSW
Cosmos 1833 Rocket 4.1 18:34:40 10° WSW 18:39:41 32° NW 18:43:03 18° N
USA 306 3.1 18:35:39 10° WNW 18:39:36 69° WSW 18:39:36 69° WSW
H-2A R/B 3.6 18:37:42 10° SSW 18:42:22 35° W 18:46:58 10° NNW
IRS-1C Rocket 4.4 18:43:34 50° NNE 18:43:34 50° NNE 18:47:39 10° N
MOS 1-B Rocket 4.5 18:40:58 10° N 18:46:44 61° WNW 18:53:15 10° SW
CZ-2C R/B 2.8 18:44:29 24° N 18:47:38 66° WNW 18:52:45 10° SSW
Cosmos 2219 Rocket 3.3 18:42:57 10° NNW 18:46:31 30° N 18:46:31 30° N
Cosmos 1125 Rocket 4.0 18:43:54 10° NNW 18:49:04 58° WSW 18:54:12 10° S
SKYMED 2 4.1 18:48:31 48° NNW 18:49:20 57° WNW 18:53:35 10° SSW
USA 32 4.2 18:45:12 10° S 18:49:25 59° SSE 18:49:25 59° SSE
NOSS 3-4 (A) 3.9 18:48:12 10° NW 18:54:43 53° NNE 18:55:00 53° NE
NOSS 3-4 (C) 3.9 18:48:18 10° NW 18:54:48 53° NNE 18:55:05 52° NE
ATLAS CENTAUR R/B 2.7 18:48:21 10° WSW 18:54:28 51° NW 18:54:28 51° NW
ATLAS 2AS CENTAUR R/B 3.4 18:50:39 10° NW 18:57:38 39° NNE 18:58:02 38° NNE
Meteor 1-27 Rocket 4.0 18:52:34 10° S 18:56:41 52° S 18:56:41 52° S
Cosmos 1900 4.5 18:53:24 10° SW 18:57:57 69° W 18:57:57 69° W
USA 307 3.9 18:55:18 10° WNW 18:58:27 45° W 18:58:27 45° W
Lacrosse 5 rocket 3.5 19:11:56 10° W 19:14:51 21° SW 19:14:51 21° SW
ATLAS CENTAUR R/B 4.1 19:15:54 10° NNW 19:17:07 14° NNW 19:17:07 14° NNW
Cosmos 2360 Rocket 2.5 19:14:23 10° NNW 19:19:09 62° NW 19:19:09 62° NW
COSMOS 2428 4.3 19:31:42 10° NNW 19:34:07 25° NNW 19:34:07 25° NNW
COSMOS 2455 4.2 19:33:55 10° W 19:39:17 32° NNW 19:39:49 31° NNW
Cosmos 2322 Rocket 3.5 19:35:55 10° NW 19:41:04 36° WSW 19:42:10 33° SW
SL-16 R/B 4.4 19:55:45 10° NW 19:59:52 21° W 20:03:05 13° SW
USA 267 4.0 20:06:46 47° NW 20:06:46 47° NW 20:11:36 10° W
Cosmos 2082 Rocket 4.3 20:02:35 10° W 20:06:45 21° NW 20:06:45 21° NW
Cosmos 2333 Rocket 4.2 20:10:52 10° NW 20:13:07 24° NW 20:13:07 24° NW
ATLAS 2AS CENTAUR R/B 4.3 20:42:09 10° NW 20:45:28 29° NW 20:45:28 29° NW
